DLH205 KLAX-MMMX

Flight info

Callsign DLH205
Flight time N/A
Altitude 39000
Route PNDAH2 TCATE DCT PPE UT10 ZCL UJ5 QET UT150 DARAN DARAN3A
Aircraft A388/J-SADE2E3FGHIJ3J4J5M1RWXY/LB1D1

Departure

Time N/A
Airport Los Angeles International Airport (KLAX)

Arrival

Time 2026-05-06 02:40
Airport Mexico City Benito Juárez International Airport (MMMX)
Time Latitude Longitude Altitude Speed Heading
2026-05-06 01:14 27.07146 -107.81120 39216 ft 553 kts 138°
2026-05-06 01:14 27.02317 -107.74401 39216 ft 553 kts 138°
2026-05-06 01:15 26.97511 -107.67725 39187 ft 553 kts 138°
2026-05-06 01:15 26.92705 -107.61058 39157 ft 553 kts 138°
2026-05-06 01:16 26.87890 -107.54391 39141 ft 553 kts 137°
2026-05-06 01:16 26.83060 -107.47713 39133 ft 553 kts 137°
2026-05-06 01:17 26.78241 -107.41059 39133 ft 553 kts 137°
2026-05-06 01:17 26.73419 -107.34413 39133 ft 552 kts 138°
2026-05-06 01:18 26.68596 -107.27771 39116 ft 551 kts 138°
2026-05-06 01:18 26.63784 -107.21160 39117 ft 551 kts 138°
2026-05-06 01:19 26.58972 -107.14553 39118 ft 551 kts 138°
2026-05-06 01:19 26.54155 -107.07952 39118 ft 551 kts 138°
2026-05-06 01:20 26.49322 -107.01339 39119 ft 551 kts 137°
2026-05-06 01:20 26.44389 -106.94898 39120 ft 547 kts 140°
2026-05-06 01:21 26.39378 -106.88564 39120 ft 547 kts 140°
2026-05-06 01:21 26.34348 -106.82211 39101 ft 548 kts 140°
2026-05-06 01:22 26.29333 -106.75885 39084 ft 547 kts 140°
2026-05-06 01:22 26.24316 -106.69566 39064 ft 547 kts 139°
2026-05-06 01:23 26.19297 -106.63253 39057 ft 547 kts 139°
2026-05-06 01:23 26.14261 -106.56927 39058 ft 547 kts 139°
2026-05-06 01:24 26.09243 -106.50633 39058 ft 547 kts 139°
2026-05-06 01:24 26.04222 -106.44344 39058 ft 547 kts 139°
2026-05-06 01:25 25.99181 -106.38040 39059 ft 546 kts 139°
2026-05-06 01:25 25.94158 -106.31763 39043 ft 546 kts 139°
2026-05-06 01:26 25.89134 -106.25499 39040 ft 545 kts 139°
2026-05-06 01:26 25.84111 -106.19243 39011 ft 546 kts 139°
2026-05-06 01:27 25.79069 -106.12971 38977 ft 546 kts 139°
2026-05-06 01:27 25.74038 -106.06723 38947 ft 546 kts 139°
2026-05-06 01:28 25.69010 -106.00485 38964 ft 545 kts 139°
2026-05-06 01:28 25.63956 -105.94228 38985 ft 546 kts 139°
2026-05-06 01:29 25.58918 -105.87993 39003 ft 546 kts 139°
2026-05-06 01:29 25.53875 -105.81764 39021 ft 546 kts 139°
2026-05-06 01:30 25.48818 -105.75527 39023 ft 547 kts 139°
2026-05-06 01:30 25.43744 -105.69276 39022 ft 547 kts 139°
2026-05-06 01:31 25.38680 -105.63046 39023 ft 548 kts 138°
2026-05-06 01:31 25.33610 -105.56817 39022 ft 548 kts 138°
2026-05-06 01:32 25.28515 -105.50566 39024 ft 549 kts 138°
2026-05-06 01:32 25.23433 -105.44340 39028 ft 549 kts 138°
2026-05-06 01:33 25.18343 -105.38111 39038 ft 549 kts 138°
2026-05-06 01:33 25.13241 -105.31877 39033 ft 549 kts 138°
2026-05-06 01:34 25.08130 -105.25640 39039 ft 549 kts 138°
2026-05-06 01:34 25.03032 -105.19427 39041 ft 550 kts 138°
2026-05-06 01:35 24.97926 -105.13213 39041 ft 550 kts 138°
2026-05-06 01:35 24.92798 -105.06982 39046 ft 550 kts 138°
2026-05-06 01:36 24.87681 -105.00768 39060 ft 550 kts 138°
2026-05-06 01:36 24.82559 -104.94562 39066 ft 551 kts 137°
2026-05-06 01:37 24.77422 -104.88343 39074 ft 552 kts 137°
2026-05-06 01:37 24.72265 -104.82108 39076 ft 552 kts 137°
2026-05-06 01:38 24.67123 -104.75898 39077 ft 552 kts 137°
2026-05-06 01:38 24.61977 -104.69694 39079 ft 552 kts 137°
2026-05-06 01:39 24.56809 -104.63471 39104 ft 552 kts 137°
2026-05-06 01:39 24.51658 -104.57278 39127 ft 553 kts 137°
2026-05-06 01:40 24.46501 -104.51083 39151 ft 552 kts 137°
2026-05-06 01:40 24.41339 -104.44892 39153 ft 553 kts 136°
2026-05-06 01:41 24.30981 -104.32492 39142 ft 553 kts 137°
2026-05-06 01:42 24.26167 -104.26741 39142 ft 553 kts 137°
2026-05-06 01:42 24.20979 -104.20551 39143 ft 552 kts 137°
2026-05-06 01:43 24.15812 -104.14391 39142 ft 553 kts 137°
2026-05-06 01:43 24.10634 -104.08229 39124 ft 553 kts 136°
2026-05-06 01:44 24.05456 -104.02072 39103 ft 553 kts 136°
2026-05-06 01:44 24.00257 -103.95901 39082 ft 553 kts 136°
2026-05-06 01:45 23.95072 -103.89752 39075 ft 553 kts 136°
2026-05-06 01:45 23.90285 -103.84084 39092 ft 553 kts 136°
2026-05-06 01:46 23.85134 -103.77993 39113 ft 552 kts 136°
2026-05-06 01:46 23.79893 -103.71927 39123 ft 552 kts 137°
2026-05-06 01:47 23.74603 -103.65915 39123 ft 551 kts 137°
2026-05-06 01:47 23.69313 -103.59907 39124 ft 551 kts 137°
2026-05-06 01:48 23.64005 -103.53887 39124 ft 551 kts 137°
2026-05-06 01:48 23.58714 -103.47894 39124 ft 550 kts 137°
2026-05-06 01:49 23.53436 -103.41924 39124 ft 550 kts 137°
2026-05-06 01:49 23.48140 -103.35941 39130 ft 549 kts 137°
2026-05-06 01:50 23.42862 -103.29985 39133 ft 548 kts 137°
2026-05-06 01:50 23.37594 -103.24048 39146 ft 548 kts 137°
2026-05-06 01:51 23.32328 -103.18118 39155 ft 548 kts 137°
2026-05-06 01:51 23.27046 -103.12179 39165 ft 547 kts 137°
2026-05-06 01:52 23.21785 -103.06273 39177 ft 547 kts 137°
2026-05-06 01:52 23.16523 -103.00369 39189 ft 546 kts 137°
2026-05-06 01:53 23.11246 -102.94458 39200 ft 546 kts 137°
2026-05-06 01:53 23.05988 -102.88575 39201 ft 546 kts 137°
2026-05-06 01:54 23.00737 -102.82705 39201 ft 545 kts 137°
2026-05-06 01:54 22.95482 -102.76840 39202 ft 545 kts 137°
2026-05-06 01:55 22.90215 -102.70967 39201 ft 544 kts 137°
2026-05-06 01:55 22.84988 -102.65091 39204 ft 544 kts 136°
2026-05-06 01:56 22.79775 -102.59213 39201 ft 544 kts 136°
2026-05-06 01:56 22.74546 -102.53326 39198 ft 543 kts 136°
2026-05-06 01:57 22.69339 -102.47470 39196 ft 542 kts 136°
2026-05-06 01:57 22.64140 -102.41629 39196 ft 542 kts 136°
2026-05-06 01:58 22.58941 -102.35797 39196 ft 541 kts 136°
2026-05-06 01:58 22.53731 -102.29957 39190 ft 540 kts 137°
2026-05-06 01:59 22.48546 -102.24153 39191 ft 539 kts 136°
2026-05-06 01:59 22.43960 -102.19024 39184 ft 539 kts 136°
2026-05-06 02:00 22.38756 -102.13212 39170 ft 538 kts 136°
2026-05-06 02:00 22.33575 -102.07432 39157 ft 538 kts 136°
2026-05-06 02:01 22.28396 -102.01663 39144 ft 537 kts 136°
2026-05-06 02:01 22.23220 -101.95902 39136 ft 537 kts 136°
2026-05-06 02:02 22.18023 -101.90125 39142 ft 537 kts 136°
2026-05-06 02:02 22.12841 -101.84373 39148 ft 537 kts 136°
2026-05-06 02:03 22.07662 -101.78629 39154 ft 537 kts 136°
2026-05-06 02:03 22.02465 -101.72871 39155 ft 537 kts 136°
2026-05-06 02:04 21.97287 -101.67143 39156 ft 536 kts 136°
2026-05-06 02:04 21.92708 -101.62079 39155 ft 536 kts 136°
2026-05-06 02:05 21.87525 -101.56357 39159 ft 536 kts 136°
2026-05-06 02:05 21.82326 -101.50625 39159 ft 536 kts 136°
2026-05-06 02:06 21.77148 -101.44918 39159 ft 536 kts 136°
2026-05-06 02:06 21.71968 -101.39219 39159 ft 536 kts 136°
2026-05-06 02:07 21.66762 -101.33494 39156 ft 536 kts 136°
2026-05-06 02:07 21.61580 -101.27805 39155 ft 536 kts 136°
2026-05-06 02:08 21.56398 -101.22120 39156 ft 535 kts 136°
2026-05-06 02:08 21.51216 -101.16444 39159 ft 535 kts 136°
2026-05-06 02:09 21.46017 -101.10752 39162 ft 535 kts 136°
2026-05-06 02:09 21.40831 -101.05082 39164 ft 535 kts 136°
2026-05-06 02:10 21.35645 -100.99418 39164 ft 535 kts 136°
2026-05-06 02:10 21.30441 -100.93740 39164 ft 535 kts 136°
2026-05-06 02:11 21.25252 -100.88086 39164 ft 535 kts 136°
2026-05-06 02:11 21.20066 -100.82439 39164 ft 535 kts 136°
2026-05-06 02:12 21.14875 -100.76794 39165 ft 534 kts 136°
2026-05-06 02:12 21.09670 -100.71140 39167 ft 534 kts 136°
2026-05-06 02:13 21.04479 -100.65508 39185 ft 534 kts 136°
2026-05-06 02:13 20.99287 -100.59878 39203 ft 534 kts 136°
2026-05-06 02:14 20.94079 -100.54238 39219 ft 534 kts 136°
2026-05-06 02:14 20.88883 -100.48618 39221 ft 533 kts 136°
2026-05-06 02:15 20.83686 -100.43005 39221 ft 533 kts 136°
2026-05-06 02:15 20.78497 -100.37403 39222 ft 533 kts 136°
2026-05-06 02:16 20.73283 -100.31781 39219 ft 533 kts 136°
2026-05-06 02:16 20.68094 -100.26192 39220 ft 532 kts 136°
2026-05-06 02:17 20.62885 -100.20589 38820 ft 538 kts 136°
2026-05-06 02:17 20.60256 -100.17769 38326 ft 539 kts 136°
2026-05-06 02:17 20.57610 -100.14937 37829 ft 538 kts 136°
2026-05-06 02:18 20.54994 -100.12139 37333 ft 535 kts 136°
2026-05-06 02:18 20.52384 -100.09348 36836 ft 533 kts 136°
2026-05-06 02:18 20.49786 -100.06571 36339 ft 531 kts 136°
2026-05-06 02:18 20.47224 -100.03836 35828 ft 515 kts 136°
2026-05-06 02:19 20.45181 -100.01653 35388 ft 503 kts 137°
2026-05-06 02:19 20.42753 -99.99064 34865 ft 491 kts 136°
2026-05-06 02:19 20.40366 -99.96520 34343 ft 480 kts 137°
2026-05-06 02:19 20.38045 -99.94045 33828 ft 471 kts 137°
2026-05-06 02:20 20.33526 -99.89230 32655 ft 447 kts 137°
2026-05-06 02:20 20.31417 -99.86982 31792 ft 417 kts 137°
2026-05-06 02:20 20.29413 -99.84850 31146 ft 408 kts 137°
2026-05-06 02:21 20.27421 -99.82737 30538 ft 406 kts 137°
2026-05-06 02:21 20.25430 -99.80618 29912 ft 404 kts 137°
2026-05-06 02:21 20.23457 -99.78533 29289 ft 401 kts 139°
2026-05-06 02:21 20.21268 -99.76781 28654 ft 394 kts 153°
2026-05-06 02:22 20.18753 -99.75784 28049 ft 387 kts 166°
2026-05-06 02:22 20.16161 -99.75138 27448 ft 385 kts 168°
2026-05-06 02:22 20.13565 -99.74571 26824 ft 383 kts 169°
2026-05-06 02:22 20.10974 -99.74036 26201 ft 382 kts 169°
2026-05-06 02:23 20.08373 -99.73506 25575 ft 380 kts 169°
2026-05-06 02:23 20.05802 -99.72984 24952 ft 379 kts 168°
2026-05-06 02:23 20.03236 -99.72463 24327 ft 378 kts 168°
2026-05-06 02:23 20.00702 -99.71949 23625 ft 364 kts 168°
2026-05-06 02:24 19.98320 -99.71465 22920 ft 344 kts 168°
2026-05-06 02:24 19.96000 -99.70992 22294 ft 340 kts 168°
2026-05-06 02:24 19.93702 -99.70525 21851 ft 337 kts 168°
2026-05-06 02:24 19.91409 -99.70061 21343 ft 335 kts 168°
2026-05-06 02:25 19.89142 -99.69601 20841 ft 333 kts 168°
2026-05-06 02:25 19.86887 -99.69143 20341 ft 331 kts 167°
2026-05-06 02:25 19.84770 -99.68337 19935 ft 323 kts 149°
2026-05-06 02:25 19.83322 -99.67203 19638 ft 317 kts 135°
2026-05-06 02:26 19.81898 -99.65475 19316 ft 309 kts 127°
2026-05-06 02:26 19.80628 -99.63658 18989 ft 307 kts 126°
2026-05-06 02:26 19.79503 -99.61733 18670 ft 307 kts 109°
2026-05-06 02:26 19.79275 -99.59522 18457 ft 306 kts 79°
2026-05-06 02:27 19.80102 -99.57472 18280 ft 306 kts 55°
2026-05-06 02:27 19.81401 -99.55691 18065 ft 308 kts 50°
2026-05-06 02:27 19.82772 -99.53959 17817 ft 307 kts 49°
2026-05-06 02:27 19.84154 -99.52253 17565 ft 305 kts 49°
2026-05-06 02:28 19.85541 -99.50562 17313 ft 304 kts 49°
2026-05-06 02:28 19.86853 -99.48801 17044 ft 302 kts 62°
2026-05-06 02:28 19.87345 -99.46673 16879 ft 301 kts 93°
2026-05-06 02:28 19.86743 -99.44575 16676 ft 302 kts 123°
2026-05-06 02:29 19.85249 -99.43050 16413 ft 302 kts 147°
2026-05-06 02:29 19.83447 -99.41939 16124 ft 301 kts 152°
2026-05-06 02:29 19.81596 -99.40934 15797 ft 299 kts 152°
2026-05-06 02:29 19.79772 -99.39921 15528 ft 296 kts 152°
2026-05-06 02:30 19.77948 -99.38901 15282 ft 296 kts 152°
2026-05-06 02:30 19.76139 -99.37891 15005 ft 294 kts 152°
2026-05-06 02:30 19.74356 -99.36895 14668 ft 289 kts 152°
2026-05-06 02:30 19.72636 -99.35935 14551 ft 273 kts 152°
2026-05-06 02:31 19.70992 -99.35019 14268 ft 264 kts 152°
2026-05-06 02:31 19.69417 -99.34141 14115 ft 247 kts 152°
2026-05-06 02:31 19.67887 -99.33289 13899 ft 251 kts 152°
2026-05-06 02:31 19.66332 -99.32423 13648 ft 251 kts 152°
2026-05-06 02:32 19.64795 -99.31567 13399 ft 250 kts 152°
2026-05-06 02:32 19.63263 -99.30715 13150 ft 250 kts 152°
2026-05-06 02:32 19.61748 -99.29846 12898 ft 249 kts 149°
2026-05-06 02:32 19.60331 -99.28875 12633 ft 238 kts 146°
2026-05-06 02:33 19.59001 -99.27936 12446 ft 221 kts 146°
2026-05-06 02:33 19.58156 -99.27344 12465 ft 218 kts 146°
2026-05-06 02:33 19.55251 -99.25307 12456 ft 208 kts 146°
2026-05-06 02:34 19.54044 -99.24461 12272 ft 210 kts 146°
2026-05-06 02:34 19.52732 -99.23836 12058 ft 209 kts 165°
2026-05-06 02:34 19.51308 -99.23573 11842 ft 209 kts 174°
2026-05-06 02:34 19.49863 -99.23488 11597 ft 209 kts 178°
2026-05-06 02:35 19.48461 -99.23458 11317 ft 197 kts 178°
2026-05-06 02:35 19.47110 -99.23432 11022 ft 192 kts 179°
2026-05-06 02:35 19.45777 -99.23407 10773 ft 193 kts 179°
2026-05-06 02:35 19.44445 -99.23382 10533 ft 193 kts 179°
2026-05-06 02:36 19.43117 -99.23357 10286 ft 192 kts 179°
2026-05-06 02:36 19.41794 -99.23331 10033 ft 191 kts 178°
2026-05-06 02:36 19.40557 -99.22927 9726 ft 189 kts 143°
2026-05-06 02:36 19.39615 -99.21982 9594 ft 187 kts 134°
2026-05-06 02:37 19.38723 -99.20989 9391 ft 180 kts 134°
2026-05-06 02:37 19.37897 -99.20050 9117 ft 174 kts 130°
2026-05-06 02:37 19.37242 -99.18994 8913 ft 171 kts 115°
2026-05-06 02:37 19.37194 -99.17776 8860 ft 169 kts 68°
2026-05-06 02:38 19.37801 -99.16922 8958 ft 170 kts 44°
2026-05-06 02:38 19.38571 -99.15965 8905 ft 173 kts 57°
2026-05-06 02:38 19.39182 -99.14868 8846 ft 175 kts 61°
2026-05-06 02:38 19.39803 -99.13752 8585 ft 175 kts 60°
2026-05-06 02:39 19.40418 -99.12662 8344 ft 172 kts 60°
2026-05-06 02:39 19.41019 -99.11582 8106 ft 170 kts 60°
2026-05-06 02:39 19.41619 -99.10515 7871 ft 169 kts 59°
2026-05-06 02:39 19.42218 -99.09452 7641 ft 168 kts 59°
2026-05-06 02:40 19.42806 -99.08397 7416 ft 166 kts 59°
2026-05-06 02:40 19.43374 -99.07380 7331 ft 154 kts 60°
2026-05-06 02:40 19.43816 -99.06586 7330 ft 90 kts 59°
2026-05-06 02:40 19.43966 -99.06250 7330 ft 16 kts 84°
2026-05-06 02:41 19.43967 -99.06171 7330 ft 5 kts 90°
2026-05-06 02:41 19.43967 -99.06145 7330 ft 6 kts 90°
2026-05-06 02:41 19.43955 -99.06094 7330 ft 7 kts 132°
2026-05-06 02:41 19.43912 -99.06096 7330 ft 8 kts 220°